Weather in Nizhneye Mulebki

Russia / Republic of Dagestan     42°19′41″N   47°34′03″E
temp.,
°C
wind,
m/s
gust,
m/s
humid.,
%
clouds,
%
prec.,
mm/h
press.,
hPa
HPBL,
m
22 april, thu
thu2200:00+7ese2298100 0.1 101956
03:00+8se1196100 0.2 1019136
06:00+7se2397100 0.0 1019169
09:00+11e337422 0.0 1018410
12:00+13e436631 0.0 1018684
15:00+10ene3380100 0.1 1018688
18:00+7ene2296100 0.7 1020275
21:00+7ene1196100 0.9 1020230
23 april, fri
fri2300:00+7nnw0195100 0.3 1018310
03:00+7ne1196100 0.3 1017154
06:00+6nne1193100 0.0 1018214
09:00+6e2293100 0.1 1019391
12:00+5ese2194100 0.1 1020473
15:00+6nne2391100 0.2 1021508
18:00+6ene218857 0.1 1022270
21:00+4ssw22934 0.1 102345
24 april, sat
sat2400:00+3s22894 0.0 102213
03:00+3s228620 0.0 102011
06:00+4s11725 0.0 102025
09:00+10ene215848 0.0 1018626
12:00+13ene425453 0.0 1016993
15:00+11ene326429 0.0 1017752
18:00+9e217897 0.0 1018190
21:00+7wsw118718 0.0 101910
25 april, sun
sun2500:00+6sw11845 0.0 101810
03:00+6wnw1183100 0.0 101810
06:00+7nw1176100 0.0 101819
09:00+12ene3258100 0.0 1017652
12:00+13e4358100 0.0 1016809
15:00+13e3260100 0.0 1014637
18:00+10e2275100 0.0 1014105
21:00+7ssw0185100 0.0 101510
26 april, mon
mon2600:00+7ssw227998 0.0 101310
03:00+8ssw2261100 0.0 101110
06:00+9s2259100 0.0 101127
09:00+12e4460100 0.0 1012412
12:00+13ene436023 0.0 1013589
15:00+10e4473100 0.0 1014775
18:00+5e2295100 0.1 1018483
21:00+5e2397100 0.2 1018322